Greeley, CO

3:55 AM MDT on September 23, 2019 (GMT -0600)
Greeley-Weld County

Weather History for KGXY - August, 2019

Change the Weather History Date:

Wednesday, August 21, 2019

  Actual Average Record
Temperature  
Mean Temperature 72 °F -  
Max Temperature 84 °F - 96 °F (2007)
Min Temperature 60 °F - 43 °F (1967)
Degree Days  
Heating Degree Days 0    
Month to date heating degree days 0  
Cooling Degree Days 8    
Month to date cooling degree days 215  
Growing Degree Days 22 (Base 50)    
Moisture  
Dew Point 59 °F    
Average Humidity 66    
Maximum Humidity 93    
Minimum Humidity 40    
Precipitation  
Precipitation 0.02 in - 0.68 in (1984)
Snow  
Snow 0.00 in - - ()
Snow Depth 0.00 in    
Sea Level Pressure  
Sea Level Pressure 30.04 in    
Wind  
Wind Speed 7 mph ()    
Max Wind Speed 17 mph    
Max Gust Speed 29 mph    
Visibility 9.6 miles    
Events Rain    
T = Trace of Precipitation, MM = Missing Value Source: Averaged Metar Reports

Daily Weather History Graph

Daily Weather History Graph

Search for Another Location

Airport or City:

Astronomy

Aug. 21, 2019 Rise Set
Actual Time 6:15 AM MDT 7:47 PM MDT
Civil Twilight 5:46 AM MDT 8:16 PM MDT
Nautical Twilight 5:11 AM MDT 8:50 PM MDT
Astronomical Twilight 4:34 AM MDT 9:27 PM MDT
Moon 11:05 PM MDT (8/21) 11:54 AM MDT (8/21)
Length of Visible Light 14h 30m
Length of Day
13h 32m
Waning Gibbous, 68% of the Moon is Illuminated
Aug 21
Waning Gibbous
Aug 23
Last Quarter
Aug 30
New
Sep 5
First Quarter
Sep 13
Full

Hourly Weather History & Observations

Time (MDT) Temp. Heat Index Dew Point Humidity Pressure Visibility Wind Dir Wind Speed Gust Speed Precip Events Conditions
12:56 AM 66.9 °F - 60.1 °F 79% 30.02 in 10.0 mi NE 17.3 mph 28.8 mph N/A   Unknown
1:56 AM 64.0 °F - 59.0 °F 84% 30.01 in 10.0 mi North 5.8 mph - N/A   Unknown
2:56 AM 62.1 °F - 59.0 °F 90% 30.02 in 10.0 mi NNW 8.1 mph - N/A   Unknown
3:56 AM 60.1 °F - 57.9 °F 93% 30.04 in 10.0 mi NW 5.8 mph - N/A   Unknown
4:56 AM 61.0 °F - 57.9 °F 90% 30.11 in 10.0 mi SSE 6.9 mph - N/A   Unknown
5:56 AM 62.1 °F - 57.0 °F 84% 30.10 in 10.0 mi SW 4.6 mph - N/A   Unknown
6:56 AM 64.0 °F - 57.9 °F 80% 30.11 in 10.0 mi Calm Calm - N/A   Unknown
7:56 AM 66.0 °F - 59.0 °F 78% 30.10 in 10.0 mi South 3.5 mph - N/A   Unknown
8:56 AM 71.1 °F - 57.9 °F 63% 30.11 in 10.0 mi SW 5.8 mph - N/A   Unknown
9:56 AM 73.0 °F - 59.0 °F 61% 30.12 in 10.0 mi Variable 5.8 mph - N/A   Unknown
10:56 AM 78.1 °F - 57.9 °F 50% 30.10 in 10.0 mi South 4.6 mph - N/A   Unknown
11:56 AM 77.0 °F - 57.9 °F 52% 30.09 in 10.0 mi Variable 4.6 mph - N/A   Unknown
12:56 PM 82.0 °F 82.0 °F 57.9 °F 44% 30.06 in 7.0 mi ESE 5.8 mph - N/A   Unknown
1:56 PM 82.0 °F 82.0 °F 57.9 °F 44% 30.04 in 10.0 mi SSE 4.6 mph - N/A   Unknown
2:56 PM 84.9 °F 84.2 °F 57.9 °F 40% 30.00 in 10.0 mi SSE 10.4 mph - N/A   Unknown
3:56 PM 82.9 °F 82.6 °F 57.9 °F 42% 30.00 in 10.0 mi SSE 5.8 mph - N/A   Unknown
4:56 PM 81.0 °F 81.3 °F 59.0 °F 47% 29.99 in 10.0 mi ESE 10.4 mph - N/A   Unknown
5:56 PM 78.1 °F - 57.9 °F 50% 29.99 in 10.0 mi ESE 8.1 mph - N/A   Unknown
6:56 PM 77.0 °F - 59.0 °F 54% 29.97 in 8.0 mi East 5.8 mph - N/A   Unknown
7:56 PM 75.0 °F - 57.9 °F 55% 29.99 in 9.0 mi East 8.1 mph - N/A   Unknown
8:56 PM 73.9 °F - 57.9 °F 57% 30.01 in 7.0 mi East 8.1 mph - N/A   Unknown
9:56 PM 69.1 °F - 62.1 °F 78% 30.02 in 10.0 mi SSE 4.6 mph - 0.02 in Rain Light Rain
10:56 PM 68.0 °F - 62.1 °F 81% 30.01 in 10.0 mi NNE 4.6 mph - 0.00 in   Unknown
11:56 PM 66.0 °F - 62.1 °F 87% 30.01 in 10.0 mi ENE 5.8 mph - N/A   Unknown